Regional Weather Roundup
Issued by NWS

Home | Current Version | Previous Version | Graphics & Text | Print | Product List | Glossary On
Versions: 1 2 3 4 5 6 7 8 9 10 11 12 13 14 15 16 17 18 19 20 21 22 23 24 25 26 27 28 29 30 31 32 33 34 35 36 37 38 39 40 41 42 43 44 45 46 47 48 49 50
000
ASUS43 KDTX 271110
RWRMI
MICHIGAN HOURLY REGIONAL WEATHER ROUNDUP
NATIONAL WEATHER SERVICE DETROIT/PONTIAC MI
700 AM EDT FRI MAR 27 2015

NOTE: "FAIR" INDICATES FEW OR NO CLOUDS BELOW 12,000 FEET WITH NO
SIGNIFICANT WEATHER AND/OR OBSTRUCTION TO VISIBILITY.

MIZ047>049-052>055-059>063-066>070-074>076-081>083-271200-
SOUTHEAST LOWER MICHIGAN

CITY           SKY/WX    TMP DP  RH WIND       PRES   REMARKS
ADRIAN         CLOUDY    24  15  68 N15       29.99R WCI  11
ALMA           CLOUDY    21  11  65 NW10      30.04S WCI  10
ANN ARBOR      CLOUDY    22  13  68 N16G23    29.99R WCI   8
BAD AXE        LGT SNOW  22  18  87 N10G18    29.98R WCI  11
CARO           LGT SNOW  21  16  81 NW10      30.00S WCI   9
DETROIT CITY   CLOUDY    25  12  58 NW14G22   29.97S WCI  13
DETROIT        FLURRIES  24  13  62 NW15G21   29.99R WCI  11
FLINT          FLURRIES  22  13  68 NW15      30.00S WCI   9
GROSSE ILE     CLOUDY    25  16  68 NW12      29.96S WCI  14
HILLSDALE      CLEAR     21  14  73 NW8       29.98R WCI  11
HOWELL         CLOUDY    21  12  68 NW14G20   29.99S WCI   8

CITY           SKY/WX    TMP DP  RH WIND       PRES   REMARKS
JACKSON        CLOUDY    21  12  68 N12       30.00R WCI   9
LAMBERTVILLE   PTCLDY    27  18  69 N12G20    29.99R WCI  16
LANSING        CLOUDY    20   9  62 NW13      30.03S WCI   7
LAPEER         LGT SNOW  19  16  86 NW9G16    29.98S WCI   9
MASON          CLOUDY    20  11  68 N13G18    30.01S WCI   7
MONROE         CLEAR     23  14  68 NW15G23   29.97S WCI  10
MT. CLEMENS    CLOUDY    23  14  67 NW14      29.95S WCI  11
PONTIAC        FLURRIES  20  11  68 NW13      29.96S WCI   7
PORT HOPE        N/A     24  17  74 N12G28    29.97R WCI  13
PORT HURON     FLURRIES  23  16  74 NW14G20   29.96S WCI  11
TRI CITIES     CLOUDY    22  11  62 NW16      30.03R WCI   8
TROY           CLOUDY    23  12  61 NW3       30.00R
SAGINAW HB     CLOUDY    21  14  73 NW14      30.02S WCI   8
$$
MIZ043>046-050>051-056>058-064>065-071>073-077>080-271200-
SOUTHWEST LOWER MICHIGAN

CITY           SKY/WX    TMP DP  RH WIND       PRES   REMARKS
BATTLE CREEK   CLEAR     20  11  68 NW9       30.03R WCI   9
BENTON HARBOR  LGT SNOW  22  17  81 VRB6      30.08S WCI  14
BIG RAPIDS     CLOUDY    19   8  62 N12       30.04R WCI   7
COLDWATER      CLEAR     21  14  72 N8        30.01S WCI  12
FREMONT        CLOUDY    20   8  59 N14       30.07R WCI   7
HOLLAND        MOCLDY    23  11  60 VRB7      30.09R WCI  15
GRAND RAPIDS   MOCLDY    20   9  62 N9        30.06R WCI   9
IONIA          CLOUDY    21   8  57 N12G18    30.04R WCI   9
KALAMAZOO      PTCLDY    20  11  68 N9        30.05R WCI   9
LUDINGTON      CLOUDY    21   2  44 NE10      30.11R WCI   9
MARSHALL       PTCLDY    19  12  72 NW5       30.01R WCI  12
MOUNT PLEASANT CLOUDY    19   8  60 NW13      30.04R WCI   7
MUSKEGON       CLOUDY    22  11  62 N13       30.09R WCI  10
SOUTH HAVEN    CLOUDY    24  14  64 N9        30.08R WCI  14
$$
MIZ016>042-271200-
NORTHERN LOWER MICHIGAN

CITY           SKY/WX    TMP DP  RH WIND       PRES   REMARKS
ALPENA         MIX PCPN  15   7  70 N16       30.06R WCI  -1
BEAVER ISLAND  CLEAR     10   4  78 N5        30.14R WCI   2
BELLAIRE       CLEAR     12   4  71 N3        30.12R
CADILLAC       CLEAR     12   5  73 NW9G17    30.03R WCI  -1
CHARLEVOIX     CLEAR     12   6  76 N9        30.14S WCI   0
FRANKFORT      PTCLDY    19   3  51 NE5       30.13R WCI  12
GAYLORD        CLEAR      8   2  76 VRB3      30.02R
GRAYLING       FLURRIES  14   7  72 N14       30.04R WCI  -1
HARBOR SPRINGS CLEAR      9   2  71 N3        30.10S
HOUGHTON LAKE  CLOUDY    15   7  70 N14       30.02R WCI   0
MANISTEE       PTCLDY    18   1  49 NE9G17    30.12R WCI   6
OSCODA         CLOUDY    19  13  76 N14G23    30.01R WCI   6
PELLSTON       CLEAR      6   0  76 NW8       30.11R WCI  -7
ROGERS CITY    CLOUDY    15   8  73 N10G17    30.08R WCI   2
TRAVERSE CITY  CLEAR     14   6  70 N9        30.11R WCI   2
$$
MIZ007>008-015-271200-
EASTERN UPPER MICHIGAN

CITY           SKY/WX    TMP DP  RH WIND       PRES   REMARKS
KINROSS        CLEAR      1  -2  85 N6        30.11R WCI -10
MACKINAC ISLAN CLEAR      9   1  69 N9G16     30.10R WCI  -4
NEWBERRY       CLEAR      2   0  89 NW6       30.13R WCI  -9
S. S. MARIE    CLEAR      4  -4  69 N7        30.12R WCI  -8
MUNISING         N/A     10   2  69 NE15      30.19R WCI  -7
$$
MIZ004>006-011>014-085-271200-
CENTRAL UPPER MICHIGAN

CITY           SKY/WX    TMP DP  RH WIND       PRES   REMARKS
MANISTIQUE     CLEAR      6   2  82 N7        30.16R WCI  -6
ESCANABA       CLOUDY    12   9  85 NE6       30.18R WCI   3
MENOMINEE      CLEAR     12   7  79 N8        30.17R WCI   1
SAWYER-GWINN   LGT SNOW  12   7  79 NE13      30.14R WCI  -3
$$
MIZ001>003-009>011-084-271200-
WESTERN UPPER MICHIGAN

CITY           SKY/WX    TMP DP  RH WIND       PRES   REMARKS
IRON MOUNTAIN  CLEAR      5   0  79 N7        30.14R WCI  -7
HOUGHTON       PTCLDY     6   0  76 NE7       30.21R WCI  -6
COPPER HARBOR    N/A      4  -2  76 CALM      30.26R
IRONWOOD       CLOUDY    18   7  62 N5        30.18R WCI  11
$$

ABBREVIATIONS USED IN REMARKS
   TC - TEMPERATURE IN CELSIUS
  WCI - WIND CHILL INDEX
   HX - HEAT INDEX
  VSB - VISIBILITY




USA.gov is the U.S. government's official web portal to all federal, state and local government web resources and services.